ROMMA est une association bénévole à but non lucratif. Votre soutien est indispensable : ADHERER à ROMMA ou FAIRE un DON

Voiron - (38, Isère)

Voironnais (300 m)   Longitude: 05° 35' E   Latitude: 45° 23' N Station partenaire n°109
 

Détail journalier du     <<     >>

Température Precipitation Humidité Pression Vent Dir Rafale Dir. rafale Ensol.
Heure (°C) (mm) (%) (hPa) (km/h) (km/h) (min)
01:00 9.707310162N6NO0
02:00 8.407610152N5NO0
03:00 7.607810152NO6ESE0
04:00 7.407710152ESE6ENE0
05:00 6.708010142N6N0
06:00 6.708010132NNE6ESE0
07:00 6.408010132SSO6SSO0
08:00 7.207910142ONO5SO0
09:00 11.706610144ESE13SE60
10:00 12.706810146SE16SSE30
11:00 13.2071101511SSO23SSE60
12:00 13.8070101411SSO26S30
13:00 15.706410147ENE19SSE60
14:00 17.3061101310S24SE60
15:00 17.7052101410SSO26SSO0
16:00 11.6067101514SO58NNO0
17:00 8.12.278101922N55NE0
18:00 5.93.484101915ENE35E0
19:00 6.9080102012ENE34ENE0
20:00 6.908310205ESE19SE0
21:00 7.408110216ESE16SE0
22:00 7.308410212N10NNO0
23:00 7.108510213ESE11ONO0
minuit 6.70.48310223SE23N0

Graphique du 17-03-2019

 

Serveur OMMA